Regional Weather Roundup
Issued by NWS Grand Forks, ND

Home | Current Version | Previous Version | Graphics & Text | Print | Product List | Glossary On
Versions: 1 2 3 4 5 6 7 8 9 10 11 12 13 14 15 16 17 18 19 20 21 22 23 24 25 26 27 28 29 30 31 32 33 34 35 36 37 38 39 40 41 42 43 44 45 46 47 48 49 50
000
ASUS43 KFGF 020431
RWRFGF
PRAIRIE TO PINES  WEATHER ROUNDUP
NATIONAL WEATHER SERVICE EASTERN NORTH DAKOTA/GRAND FORKS ND
1100 PM CDT SAT AUG 01 2015

 **SATELLITE DATA USED TO AUGMENT SKY COVER AT AUTOMATED STATIONS**
 *****  WEATHER ACROSS EASTERN NORTH DAKOTA  *****

CITY           SKY/WX    TMP DP  RH WIND       PRES   REMARKS
GRAND FORKS    PTCLDY    69  62  78 S6        29.66F
GRAND FRKS AFB PTCLDY    66  61  84 SW2       29.67
DEVILS LAKE    MOCLDY    73  63  68 S5        29.69S
FARGO          CLEAR     69  65  86 SE5       29.70F
WAHPETON ARPT  CLEAR     72  68  88 CALM      29.71F
$$

 ***** WEATHER ACROSS CENTRAL AND WESTERN NORTH DAKOTA  *****

CITY           SKY/WX    TMP DP  RH WIND       PRES   REMARKS
BISMARCK       PTCLDY    72  58  61 CALM      29.73R
MINOT          CLEAR     74  56  53 SW8       29.70R
JAMESTOWN      CLEAR     71  66  84 SE7       29.69F
MINOT AFB      CLEAR     71  62  73 N21       29.69R
GARRISON         N/A     67  57  70 W7        29.71S
WILLISTON      CLEAR     75  55  49 N16       29.83R
DICKINSON      CLEAR     64  44  48 W7        29.82R
HETTINGER      CLEAR     66  47  50 CALM      29.86R
$$

 *****  OTHER AIRPORT OBSERVATIONS IN OUR AREA  *****

CITY           SKY/WX    TMP DP  RH WIND       PRES   REMARKS
WALHALLA       LGT RAIN  68  64  88 MISG      29.69R
GRAFTON AIRPOR FAIR      68  63  83 SW8       29.65F
VALLEY CITY AR FAIR      72  70  94 S7        29.70F
CANDO          FAIR      66  63  88 N8        29.72R
CAVALIER APRT  FAIR      73  63  68 NW15G38   29.71R
GWINNER          N/A     72  72 100 S5        29.73S
SHEYENNE NWR     N/A     70  68  94 CALM      29.95S
ROLLA          FAIR      63  57  82 N8        29.78R
 ***** THE ABOVE OBSERVATIONS ARE NON NWS ARE NOT QUALITY
       CONTROLLED AND MAY MIS-REPORT RAIN FOR SNOW...
$$

  *****  WEATHER ACROSS NORTHERN MINNESOTA  *****

CITY           SKY/WX    TMP DP  RH WIND       PRES   REMARKS
FLAG ISLAND    CLOUDY    72  57  60 N3        29.62F
WARROAD        PTCLDY    68  63  83 SW3       29.65F
ROSEAU         PTCLDY    64  59  82 S6        29.64F
HALLOCK        CLOUDY    66  63  88 SW5       29.64S
THF RVR FALLS  PTCLDY    68  63  83 S7        29.68F
BAUDETTE       MOCLDY    65  58  78 S7        29.66F
WASKISH        MOCLDY    68  61  77 S5        29.68F
CROOKSTON      PTCLDY    66  63  88 SE6       29.68F
STEPHEN NDAWN    N/A     72  64  78 S9          N/A
GREENBUSH NDAW   N/A     70  63  78 SW5         N/A
$$
  *****  WEATHER ACROSS CENTRAL AND WEST MINNESOTA  *****

CITY           SKY/WX    TMP DP  RH WIND       PRES   REMARKS
FOSSTON        PTCLDY    61  59  94 S7        29.71F
BEMIDJI        PTCLDY    63  58  83 CALM      29.72F
PARK RAPIDS    CLEAR     70  60  70 CALM      29.75S
ELBOW LAKE     FAIR      70  66  89 S7        29.73S
WADENA         CLEAR     66  63  88 CALM      29.74S
DETROIT LAKES  CLEAR     70  64  83 CALM      29.75F
MOORHEAD       CLEAR     72  66  83 SE5       29.70F
FERGUS FALLS   CLEAR     73  68  83 CALM      29.72S
MORRIS MN      CLEAR     70  66  88 S3        29.73S
STAPLES        CLEAR     70  63  78 CALM      29.74F
$$
  *****  WEATHER ELSEWHERE ACROSS MINNESOTA  *****

CITY           SKY/WX    TMP DP  RH WIND       PRES   REMARKS
DULUTH         PTCLDY    67  58  72 W7        29.74F
INTRNTL FALLS  PTCLDY    59  55  87 SW3       29.68F
ELY            CLEAR     61  54  77 SW3       29.72F
CLOQUET        CLEAR     66  57  72 SW5       29.74F
WHEATON        CLEAR     70  64  83 S7        29.73S
BRAINERD       CLEAR     67  62  84 S3        29.75F
HIBBING        PTCLDY    64  56  75 SW3       29.73F
ALEXANDRIA     CLEAR     73  67  81 SW7       29.76F
SAINT CLOUD    CLEAR     71  67  87 SW7       29.75F
MINNEAPOLIS    MOCLDY    79  67  66 SW12      29.77F
$$

  *****  WEATHER ACROSS SOUTH DAKOTA  *****

CITY           SKY/WX    TMP DP  RH WIND       PRES   REMARKS
SIOUX FALLS    PTCLDY    75  67  76 SW8       29.84S
BROOKINGS      CLEAR     72  63  73 S9        29.82F
WATERTOWN      CLEAR     73  64  73 SW10      29.78S
HURON          CLEAR     76  63  64 SW9       29.78S
SISSETON         N/A     69  66  90 VRB3      29.72R
ABERDEEN       CLEAR     72  64  76 W7        29.75S
MITCHELL       CLEAR     77  63  61 SW8       29.82R
PIERRE         CLEAR     78  62  57 SW10      29.81R
MOBRIDGE       CLEAR     69  62  78 SE7       29.74F
RAPID CITY     CLEAR     71  55  56 S8        29.93R
$$

  *****  SOME WEATHER IN NEARBY STATES *****

CITY           SKY/WX    TMP DP  RH WIND       PRES   REMARKS
GLASGOW MT     CLEAR     74  57  55 NE16G24   29.86R
GREAT FALLS MT CLEAR     70  31  23 NW6       29.92R
CHEYENNE WY    MOCLDY    70  53  54 SE13      30.17R
SCOTTSBLUFF NE PTCLDY    67  59  75 E5        30.04R
OMAHA NE       PTCLDY    78  72  81 S8        29.91R
DES MOINES IA  PTCLDY    77  70  79 S5        29.91R
DAVENPORT IA   CLEAR     72  66  81 S7        29.92S
CHICAGO IL     CLEAR     76  64  66 W8        29.89F
EAU CLAIRE WI  PTCLDY    68  62  81 NE3       29.79F
LA CROSSE WI   CLEAR     77  67  71 S8        29.83R
$$

  *****  SOME NATIONAL WEATHER *****

CITY           SKY/WX    TMP DP  RH WIND       PRES   REMARKS
LA GUARDIA NY  PTCLDY    79  58  48 NW6       29.84S
RALEIGH NC     PTCLDY    74  64  71 CALM      29.92S
ATLANTA GA     PTCLDY    82  60  47 N6        29.96F
NEW ORLEANS LA CLEAR     83  63  50 CALM      29.89R
OKLAHOMA CITY  PTCLDY    75  70  84 S3        30.00R
ALBUQUERQUE NM LGT RAIN  67  61  81 NW7       30.22R
SALT LAKE CITY MOCLDY    82  39  21 N6        29.99R
LOS ANGELES CA PTCLDY    69  65  86 SW8       29.91R
BOISE ID       CLEAR     89  41  18 CALM      29.87R
SEATTLE WA     PTCLDY    78  46  32 N9        29.92R
$$

*** WEATHER ACROSS MANITOBA...SASKATCHEWAN AND ONTARIO ***
                ***ONTARIO***

CITY           SKY/WX    TMP DP  RH WIND       PRES   REMARKS
GERALDTON      MOCLDY    57  55  94 W10       29.62F
THUNDER BAY    MOCLDY    63  57  82 NE3       29.65
SIOUX LOOKOUT  CLOUDY    61  59  94 W5        29.64F
TORONTO        CLEAR     66  54  63 W6        29.84F
BIG TROUT LK   LGT RAIN  54  50  87 NW15G22   29.48S
PICKLE LAKE    NOT AVBL
DRYDEN         LGT RAIN  61  57  88 W6        29.66
KENORA         LGT RAIN  63  61  94 NW5       29.69R
$$
                *** MANITOBA***

CITY           SKY/WX    TMP DP  RH WIND       PRES   REMARKS
BRANDON        MOCLDY    63  61  94 NW6       29.77R
DAUPHIN        CLOUDY    64  61  88 N3        29.75R
ISLAND LAKE    MOCLDY    59  52  77 N13G28    29.61S
PILOT MOUND      N/A    N/A N/A N/A N12         N/A
THE PAS        PTCLDY    64  50  59 NW8       29.75R
THOMPSON       LGT RAIN  55  48  76 NW10      29.67R
WINNIPEG       MOCLDY    66  61  82 NE5       29.68S
LYNN LAKE      CLOUDY    55  46  71 N12       29.76S
CHURCHILL      LGT RAIN  46  45  93 N22       29.53S
GILLAM         CLOUDY    52  48  87 NW18G24   29.55S
$$
                ***SASKATCHEWAN***

CITY           SKY/WX    TMP DP  RH WIND       PRES   REMARKS
ESTEVAN        PTCLDY    63  55  77 NW9       29.84R
KINDERSLEY     PTCLDY    61  50  67 N8        29.97R
LLOYDMINSTER   PTCLDY    61  54  77 NW6       29.98R
PRINCE ALBERT  PTCLDY    57  52  82 NW7       29.88R
REGINA         CLEAR     57  54  88 W7        29.88R
YORKTON        PTCLDY    61  55  82 W8        29.83R
N. BATTLEFORD  CLEAR     57  52  82 N7        29.96R
LA RONGE       PTCLDY    61  39  44 NW5       29.86R
SASKATOON      PTCLDY    59  55  88 N7        29.93R
SWIFT CURRENT  CLEAR     63  54  72 NE8       29.96R
$$
NOTE: THESE ARE AUTOMATED STATIONS WITH LIMITED QUALITY CONTROL
      "FAIR" INDICATES FEW OR NO CLOUDS BELOW 12,000 FEET WITH NO
      SIGNIFICANT WEATHER AND/OR OBSTRUCTIONS TO VISIBILITY.
      SKY/WX - SKY CONDITION AND SIGNIFICANT WEATHER.
      TMP - AIR TEMPERATURE.    DP   - DEWPOINT TEMPERATURE.
      RH  - RELATIVE HUMIDITY.  PRES - PRESSURE.
      HX  - HEAT INDEX.         WCI  - WIND CHILL INDEX.
$


USA.gov is the U.S. government's official web portal to all federal, state and local government web resources and services.